Simultaneous Nadir Overpasses (SNOs) Predictions

Prediction of SNOs between NOAA-19 and TERRA Satellite Orbit:

Table of predicted SNOs for the next 14.0 days since TLE Epoch: 9/28/2012
Index Date (NOAA-19) Time (NOAA-19) NOAA-19 Lat,Lon Date (TERRA) Time (TERRA) TERRA Lat,Lon Distance(km) Time Diff (sec)
1 09/30/2012 11:15:48 -69.17,-169.65 09/30/2012 11:16:46 -69.19,-169.65 1.35 58
2 09/30/2012 12:06:50 69.01, -2.20 09/30/2012 12:06:14 69.02, -2.22 1.23 36
3 10/02/2012 16:00:24 -69.16, 119.21 10/02/2012 16:01:01 -69.18, 119.28 3.38 37
4 10/02/2012 16:51:25 68.98, -73.30 10/02/2012 16:50:29 69.02, -73.29 3.54 56
5 10/04/2012 20:44:59 -69.11, 48.15 10/04/2012 20:45:17 -69.11, 48.12 1.40 18
6 10/04/2012 21:35:58 68.85,-144.26 10/04/2012 21:34:46 68.89,-144.52 11.20 72
7 10/07/2012 00:38:45 69.73, 168.85 10/07/2012 00:39:55 69.57, 170.04 49.04 70
8 10/07/2012 01:29:35 -69.10, -22.99 10/07/2012 01:29:32 -69.08, -22.98 2.42 3
9 10/07/2012 02:20:19 68.13, 145.56 10/07/2012 02:19:12 68.18, 143.56 82.99 67
10 10/09/2012 05:23:10 69.18, 98.51 10/09/2012 05:24:16 69.19, 98.47 2.07 66
11 10/09/2012 06:14:09 -69.05, -94.06 10/09/2012 06:13:46 -69.03, -94.10 2.45 23
12 10/11/2012 10:07:44 69.17, 27.40 10/11/2012 10:08:29 69.19, 27.40 2.36 45
13 10/11/2012 10:58:45 -69.05,-165.21 10/11/2012 10:58:00 -69.03,-165.17 3.15 45




NCC Satellite Simultaneous Nadir Overpasses (SNOs) Prediction Service
